Wind_Speed
14 14 14 14 13 13 12 12 12 12 12 12 10 9 8 8 7 6 7 9 10 12 13 15 16 18 19 20 20 20 20 20 21 21 21 22 23 23 22 22 22 22 20
15 14 16 17 15 14 14 14 14 14 13 12 10 9 9 8 7 7 8 9 11 12 13 15 16 18 18 19 20 20 20 21 22 23 22 23 24 24 24 25 25 26 24
16 16 17 17 16 14 14 15 15 14 13 12 11 9 8 7 7 7 10 9 12 12 14 15 17 18 17 17 17 17 17 18 19 22 23 24 25 26 27 28 29 28 28
16 18 17 17 15 15 15 16 16 14 12 10 10 10 9 7 8 9 9 8 10 13 16 16 17 17 17 17 18 19 19 20 22 23 24 25 26 27 28 29 30 30 30
18 19 18 17 16 15 16 16 15 13 11 10 10 10 10 8 8 10 12 12 10 9 9 13 16 18 18 20 21 23 23 24 26 27 27 29 29 29 30 30 31 30 30
24 23 20 19 17 16 16 16 14 13 11 11 10 10 10 9 8 9 11 13 14 14 14 15 16 17 18 18 21 22 23 25 25 26 27 28 28 27 28 29 29 30 29
25 25 23 21 19 16 16 16 14 14 12 11 11 11 10 10 10 10 10 11 12 13 15 17 19 20 22 22 23 25 26 27 29 30 31 32 32 31 32 32 32 32 31
24 24 24 22 21 18 16 17 16 15 13 13 13 12 11 11 11 10 10 8 8 8 10 13 15 17 20 21 23 24 24 24 26 27 29 30 31 32 33 34 33 34 34
23 24 23 22 21 19 18 19 19 17 16 16 15 14 13 12 12 11 10 11 12 13 14 16 17 19 19 20 22 23 24 25 25 26 28 29 30 31 33 33 34 34 35
22 22 22 22 22 20 18 18 20 19 19 18 17 17 15 16 16 14 14 13 14 18 21 22 26 27 27 27 27 27 26 26 27 27 28 31 33 34 35 37 36 36 35
23 24 23 24 24 21 20 18 19 21 21 20 20 19 18 19 19 18 17 17 18 21 24 26 27 29 30 28 28 29 29 29 30 31 31 31 32 34 35 36 36 37 37
25 26 25 26 26 23 21 21 20 19 22 23 23 23 22 21 22 22 20 20 20 23 27 27 30 32 30 28 29 28 29 29 31 30 30 31 32 32 33 33 33 33 35
28 28 28 28 28 25 25 24 23 22 22 26 25 25 25 26 24 24 21 20 20 25 27 30 32 27 20 18 19 20 22 24 27 29 29 31 31 31 31 31 31 31 31
28 30 30 30 29 28 28 27 26 23 24 24 28 26 26 27 27 25 22 21 23 27 28 30 30 23 18 20 22 23 24 26 29 31 33 35 36 35 34 34 34 35 33
27 30 31 34 34 33 30 30 28 25 25 24 26 27 24 28 28 25 25 24 26 28 30 30 28 23 22 23 25 27 30 32 35 37 38 38 37 37 36 35 35 35 37
30 29 31 31 33 34 33 33 31 27 26 26 26 26 25 25 26 24 25 26 28 29 30 30 28 25 26 28 29 33 35 38 41 41 42 41 39 38 36 36 37 37 38
30 31 32 33 33 32 33 35 33 30 29 27 28 26 25 24 24 23 25 26 28 30 30 31 30 29 29 31 33 36 40 40 41 41 41 38 35 34 34 36 38 39 40
33 33 34 34 31 33 35 35 34 34 30 28 29 26 25 23 23 24 26 26 28 31 32 32 30 30 31 34 36 40 40 41 40 35 31 32 34 35 37 39 40 41 42
42 37 35 35 33 32 36 36 34 32 30 28 29 29 25 24 24 25 25 26 29 32 33 31 29 29 32 36 39 39 41 40 36 33 34 37 38 40 41 43 44 45 47
36 41 40 36 36 34 36 38 35 33 29 29 29 30 26 26 26 26 26 29 30 32 31 29 30 32 35 40 40 40 41 39 37 36 38 41 42 44 46 49 51 53 54
33 37 42 39 38 37 39 39 35 33 30 29 29 28 28 29 28 28 29 29 30 31 30 32 34 35 38 39 41 42 41 39 38 39 42 44 48 49 51 54 55 57 58
36 36 40 41 39 39 38 39 33 32 30 28 28 30 32 30 30 30 30 30 32 33 34 36 39 40 41 40 41 40 41 41 41 43 45 48 51 53 56 59 60 62 63
37 37 37 41 39 38 38 36 33 31 31 29 29 32 33 32 33 33 33 33 35 36 38 40 43 45 44 42 42 43 41 40 41 44 48 52 55 58 61 64 65 64 65
37 38 36 40 41 39 37 34 35 34 32 32 30 32 35 36 36 37 37 37 38 40 42 44 47 47 46 45 44 43 44 46 48 48 48 51 55 59 63 63 65 66 66
41 39 38 39 43 40 37 34 34 36 34 32 33 34 36 37 38 39 39 40 41 43 45 48 49 49 47 45 44 46 49 51 55 57 57 57 60 61 63 66 66 65 65
41 42 40 37 41 42 38 36 36 36 37 35 35 36 38 37 38 40 40 42 43 46 49 50 49 48 47 46 47 50 53 55 57 61 64 64 63 63 66 67 65 65 67
Wind_Direction
270 272 264 264 268 277 284 287 289 296 301 302 300 295 288 294 305 319 314 294 274 275 276 277 280 279 279 280 277 273 272 270 269 270 272 274 274 273 276 280 285 287 287
259 257 262 267 270 275 283 286 292 296 293 293 290 287 286 291 292 293 290 286 273 268 271 273 275 278 279 279 281 278 276 272 270 270 272 274 275 276 279 282 282 283 282
258 252 259 262 268 273 276 280 282 286 289 289 286 282 275 272 279 283 269 262 259 261 262 267 270 271 272 274 276 278 280 279 279 280 279 279 279 281 283 285 284 283 282
261 255 254 259 264 270 272 275 277 279 278 282 283 283 277 272 271 268 266 265 259 257 258 261 265 268 267 268 271 274 277 280 280 281 281 281 281 283 284 285 284 282 280
258 262 257 258 261 266 272 271 270 271 273 275 275 275 278 276 276 272 262 258 262 271 277 274 270 270 270 271 274 276 278 280 282 283 284 283 284 284 283 282 282 280 277
262 264 262 266 266 270 271 268 265 265 268 271 269 271 273 273 271 271 267 264 265 272 278 279 280 280 281 283 283 285 286 286 286 287 287 288 287 288 288 287 284 282 280
262 261 259 261 266 270 269 265 260 258 259 260 262 265 269 276 279 278 273 271 272 275 279 280 281 282 284 284 284 284 285 285 285 286 285 286 287 287 286 287 287 284 281
262 259 259 260 265 262 264 266 262 256 253 251 253 256 264 265 265 266 266 268 274 275 281 289 292 293 291 290 290 290 290 290 289 288 290 289 288 288 287 286 286 285 284
252 252 258 258 260 264 265 265 265 261 256 254 249 250 252 256 252 252 249 264 278 287 294 299 299 297 296 295 292 291 291 291 292 292 292 292 291 290 288 286 285 284 282
240 241 248 252 256 260 263 267 268 265 260 256 252 249 247 249 248 251 256 264 279 289 292 298 302 301 297 292 291 291 292 293 294 294 295 293 290 289 287 283 282 282 282
241 233 238 246 251 257 262 265 264 264 260 257 254 252 252 251 250 251 255 263 280 289 298 302 304 306 299 291 287 287 289 291 294 296 299 299 297 291 289 285 282 279 279
242 233 236 238 245 249 256 265 271 266 259 259 256 254 255 258 256 254 259 270 283 295 298 303 306 308 301 294 295 294 288 293 297 296 296 294 292 290 288 285 283 282 279
240 232 234 240 246 249 253 259 264 270 267 255 257 257 258 258 261 261 263 272 284 293 297 305 305 303 306 311 308 304 294 292 295 298 300 297 294 292 293 290 287 283 282
246 238 237 240 246 250 255 260 263 265 264 260 252 256 256 260 260 264 268 276 283 289 295 300 302 295 300 308 309 304 298 296 296 297 297 299 298 297 293 292 289 286 285
245 247 243 243 244 248 251 256 259 262 263 261 253 255 259 260 263 266 271 276 283 287 292 296 296 289 293 299 303 301 298 299 299 299 297 295 296 295 292 289 287 286 285
246 245 245 249 250 254 254 255 256 260 264 258 253 254 258 261 264 267 270 276 280 284 289 292 291 284 289 295 299 299 299 300 300 300 298 294 292 292 289 288 286 285 284
248 249 249 248 249 251 254 257 260 260 261 258 255 255 257 257 261 264 266 268 276 282 285 290 289 282 285 292 297 298 299 300 300 299 298 296 294 291 288 287 286 285 285
243 247 251 254 254 252 253 255 258 258 260 258 254 252 251 253 257 258 260 265 273 279 282 287 287 283 286 293 295 296 298 299 299 295 296 296 295 292 290 287 285 284 283
242 242 248 255 255 254 251 255 255 255 257 260 256 252 249 252 255 257 261 266 272 278 282 284 282 286 291 292 294 296 297 299 296 292 292 292 292 291 290 288 286 285 285
243 240 244 248 255 255 256 254 256 252 254 259 259 250 248 254 255 259 263 268 274 283 282 279 283 287 291 294 294 296 297 298 295 293 292 291 290 289 289 288 286 286 286
246 240 242 244 248 252 256 254 257 253 252 259 262 252 248 253 258 261 265 271 277 284 286 284 284 288 292 292 291 294 295 294 292 290 290 290 291 291 291 291 291 290 288
242 243 244 243 246 249 255 252 255 255 254 258 259 248 248 253 259 265 268 274 280 283 286 288 289 292 293 291 291 293 293 293 293 293 293 293 293 293 294 294 293 292 290
238 241 244 245 246 248 253 254 252 255 253 254 256 250 249 256 261 266 271 276 281 283 286 290 292 294 293 291 291 291 288 287 288 290 293 295 296 298 299 298 297 295 293
238 237 242 244 247 250 253 255 252 252 253 254 258 256 253 258 263 267 272 278 283 287 288 290 290 294 291 291 292 292 290 290 291 290 288 290 293 296 296 294 295 294 293
239 235 237 243 244 250 254 255 257 253 254 254 257 260 260 262 264 269 274 280 284 287 287 289 291 291 290 292 292 292 293 294 296 297 297 294 296 297 297 297 296 294 290
239 238 237 242 243 248 255 254 255 253 251 254 259 262 263 265 269 272 276 280 284 286 286 288 290 290 292 292 293 294 294 294 295 296 298 298 298 297 298 297 295 292 290
Height
5863 5863 5863 5863 5864 5864 5864 5865 5865 5864 5864 5864 5864 5864 5863 5863 5864 5863 5864 5864 5864 5865 5865 5865 5865 5865 5864 5864 5866 5866 5866 5866 5866 5865 5865 5865 5866 5866 5866 5866 5865 5865 5864
5860 5860 5860 5860 5860 5861 5861 5861 5861 5861 5861 5861 5861 5861 5861 5860 5860 5861 5861 5861 5861 5861 5862 5863 5863 5863 5862 5862 5862 5863 5863 5863 5862 5862 5861 5861 5861 5861 5861 5861 5861 5860 5860
5857 5857 5857 5857 5857 5858 5858 5858 5858 5858 5858 5858 5858 5857 5857 5857 5857 5858 5858 5858 5859 5859 5859 5859 5860 5859 5858 5858 5858 5858 5858 5859 5858 5858 5858 5857 5856 5856 5856 5856 5856 5856 5855
5853 5853 5853 5854 5854 5855 5855 5855 5855 5854 5854 5855 5854 5855 5854 5855 5855 5855 5854 5854 5854 5854 5855 5855 5856 5856 5855 5855 5855 5855 5855 5855 5855 5855 5855 5854 5853 5852 5852 5851 5851 5850 5850
5848 5848 5848 5849 5851 5852 5852 5851 5851 5852 5852 5852 5852 5851 5851 5851 5851 5852 5851 5851 5851 5851 5851 5852 5852 5853 5852 5852 5852 5851 5850 5851 5851 5851 5850 5850 5848 5847 5846 5845 5845 5844 5843
5845 5844 5845 5845 5846 5848 5848 5848 5848 5848 5849 5849 5849 5849 5848 5848 5848 5848 5849 5849 5848 5848 5849 5849 5849 5849 5849 5848 5848 5847 5847 5847 5846 5846 5846 5845 5844 5842 5841 5839 5839 5838 5838
5841 5841 5841 5841 5842 5843 5845 5844 5844 5845 5846 5847 5847 5847 5846 5845 5845 5845 5846 5845 5845 5844 5845 5846 5845 5845 5844 5844 5843 5842 5842 5841 5841 5841 5840 5839 5838 5836 5835 5834 5833 5833 5832
5837 5838 5837 5837 5838 5839 5840 5841 5841 5841 5842 5843 5844 5844 5843 5843 5843 5843 5843 5842 5842 5841 5841 5842 5841 5841 5840 5839 5839 5838 5837 5836 5836 5835 5834 5834 5832 5830 5828 5827 5827 5826 5825
5833 5834 5834 5834 5834 5835 5836 5836 5837 5837 5838 5839 5840 5840 5840 5840 5840 5841 5840 5840 5838 5838 5839 5838 5837 5837 5836 5835 5834 5833 5832 5832 5830 5829 5828 5827 5826 5824 5822 5821 5819 5819 5818
5828 5829 5830 5831 5831 5831 5832 5832 5833 5833 5833 5835 5836 5836 5836 5837 5837 5836 5836 5835 5835 5835 5835 5834 5833 5832 5831 5830 5829 5827 5825 5826 5824 5823 5822 5821 5819 5817 5815 5814 5812 5811 5810
5824 5824 5825 5826 5827 5828 5828 5828 5828 5829 5830 5830 5831 5832 5833 5832 5832 5832 5831 5832 5831 5831 5830 5828 5828 5826 5825 5823 5822 5821 5819 5819 5818 5816 5815 5813 5812 5809 5807 5805 5804 5803 5802
5818 5819 5820 5821 5821 5823 5824 5825 5825 5824 5825 5825 5826 5827 5827 5827 5827 5827 5827 5827 5827 5826 5825 5823 5822 5820 5817 5815 5815 5813 5812 5812 5811 5810 5808 5806 5804 5802 5800 5798 5796 5794 5792
5813 5814 5815 5816 5816 5817 5818 5819 5820 5820 5819 5820 5820 5821 5821 5822 5822 5822 5821 5822 5821 5821 5820 5818 5817 5814 5812 5810 5809 5807 5807 5805 5804 5802 5800 5798 5796 5794 5792 5789 5788 5786 5785
5807 5809 5809 5810 5811 5811 5812 5813 5815 5815 5814 5814 5814 5815 5815 5815 5816 5817 5816 5816 5816 5815 5814 5813 5811 5809 5807 5806 5804 5803 5801 5799 5797 5795 5792 5790 5787 5786 5783 5781 5779 5777 5777
5801 5802 5803 5803 5804 5805 5806 5807 5808 5809 5809 5808 5808 5808 5809 5810 5810 5811 5811 5811 5810 5809 5809 5807 5805 5803 5800 5800 5798 5797 5795 5791 5789 5787 5784 5782 5779 5776 5774 5772 5770 5769 5767
5795 5796 5796 5798 5798 5800 5801 5801 5801 5803 5803 5802 5802 5802 5803 5803 5804 5805 5805 5805 5805 5803 5802 5800 5799 5796 5794 5793 5791 5790 5788 5784 5781 5778 5775 5773 5770 5768 5765 5764 5762 5760 5758
5790 5790 5790 5791 5792 5794 5794 5794 5796 5797 5797 5797 5796 5797 5798 5798 5798 5798 5799 5799 5798 5797 5795 5793 5791 5790 5787 5785 5784 5782 5780 5777 5773 5769 5766 5763 5760 5759 5757 5755 5753 5751 5749
5783 5783 5783 5785 5787 5788 5788 5789 5789 5790 5791 5791 5791 5791 5792 5792 5792 5792 5793 5793 5792 5790 5789 5786 5784 5782 5780 5778 5776 5774 5771 5768 5764 5761 5758 5755 5753 5751 5749 5747 5744 5742 5739
5774 5776 5777 5778 5780 5780 5781 5781 5781 5782 5784 5785 5785 5786 5786 5785 5785 5786 5785 5786 5785 5783 5781 5779 5778 5775 5773 5771 5769 5766 5763 5759 5756 5753 5750 5747 5744 5741 5738 5736 5733 5731 5727
5763 5768 5769 5771 5771 5773 5774 5773 5774 5775 5776 5778 5779 5779 5779 5779 5779 5779 5778 5779 5777 5776 5773 5772 5771 5768 5766 5762 5759 5757 5754 5750 5747 5744 5741 5738 5735 5731 5728 5724 5721 5718 5714
5754 5757 5760 5762 5764 5765 5766 5767 5767 5769 5770 5771 5771 5772 5772 5773 5773 5772 5772 5771 5769 5768 5766 5765 5763 5761 5759 5755 5751 5747 5745 5741 5738 5734 5731 5727 5722 5719 5715 5710 5706 5702 5699
5745 5748 5751 5754 5756 5757 5758 5760 5761 5762 5764 5764 5764 5765 5765 5766 5766 5766 5765 5763 5762 5761 5759 5757 5754 5752 5749 5746 5743 5739 5735 5731 5727 5723 5720 5715 5710 5706 5701 5696 5691 5686 5682
5737 5740 5743 5746 5748 5749 5750 5753 5755 5757 5757 5757 5756 5757 5758 5759 5759 5759 5757 5756 5755 5753 5751 5749 5745 5742 5739 5736 5733 5729 5727 5724 5721 5717 5710 5703 5697 5692 5685 5680 5674 5668 5663
5728 5731 5733 5737 5740 5741 5743 5745 5748 5749 5750 5750 5750 5750 5750 5751 5751 5751 5749 5748 5746 5745 5742 5740 5736 5732 5728 5724 5721 5717 5714 5710 5708 5707 5704 5697 5690 5683 5675 5667 5660 5653 5647
5720 5722 5724 5727 5731 5734 5735 5737 5739 5741 5742 5742 5743 5743 5743 5744 5743 5742 5741 5739 5737 5735 5732 5730 5726 5722 5718 5714 5710 5706 5701 5696 5690 5686 5685 5682 5677 5668 5660 5653 5644 5636 5629
5710 5713 5716 5720 5723 5727 5728 5730 5732 5733 5734 5735 5735 5736 5736 5736 5736 5735 5733 5730 5727 5725 5722 5718 5714 5710 5706 5702 5697 5693 5688 5683 5677 5671 5667 5662 5657 5652 5645 5636 5626 5618 5611